Location: Bogis-Bossey
(46.3500°N, 6.1667°E)
Time: 18:45:46
(UTC+00:00)

Aureole 3 - Pass Details

Date: 17 August 2022
Orbit: 380 x 1207 km, 82.5° (Epoch: 01 October)

Event Time Altitude Azimuth Distance (km) Brightness Sun altitude
Rises 19:10:56 0° 351° (N) 3,727 8.1 -5.5°
Reaches altitude 10° 19:13:45 10° 353° (N) 2,648 7.3 -5.9°
Maximum altitude 19:19:44 79° 79° (E) 798 4.0 -6.9°
Drops below altitude 10° 19:24:24 10° 167° (SSE) 2,070 5.9 -7.6°
Sets 19:26:23 0° 169° (S) 2,862 6.6 -7.9°
